Flag Island, MN

3:25 AM CDT on July 23, 2017 (GMT -0500)
Flag Island

Weather History for KFGN - November, 2013

Change the Weather History Date:

Sunday, November 3, 2013

  Actual Average Record
Temperature  
Mean Temperature 40 °F -  
Max Temperature 44 °F 35 °F 57 °F (2008)
Min Temperature 37 °F 27 °F 17 °F (2003)
Degree Days  
Heating Degree Days 24    
Moisture  
Dew Point 34 °F    
Average Humidity 75    
Maximum Humidity 93    
Minimum Humidity 61    
Precipitation  
Precipitation 0.00 in - - ()
Sea Level Pressure  
Sea Level Pressure 29.88 in    
Wind  
Wind Speed 11 mph (SE)    
Max Wind Speed 24 mph    
Max Gust Speed 32 mph    
Visibility 10 miles    
Events      
Averages and records for this station are not official NWS values.
T = Trace of Precipitation, MM = Missing Value Source: NWS Daily Summary

Daily Weather History Graph

Daily Weather History Graph

Search for Another Location

Airport or City:

Trip Planner

Search our weather history database for the weather conditions in past years. The results will help you decide how hot, cold, wet, or windy it might be!

Date:

Astronomy

Nov. 03, 2013 Rise Set
Actual Time 7:11 AM CST 4:54 PM CST
Civil Twilight 6:37 AM CST 5:27 PM CST
Nautical Twilight 5:59 AM CST 6:05 PM CST
Astronomical Twilight 5:22 AM CST 6:42 PM CST
Moon 7:17 AM CST (11/3) 5:06 PM CST (11/3)
Length of Visible Light 10h 50m
Length of Day
9h 42m
New Moon, 0% of the Moon is Illuminated
Nov 3
New Moon
Nov 9
First Quarter
Nov 17
Full
Nov 25
Last Quarter
Dec 2
New

Hourly Weather History & Observations

Time (CST) Temp. Windchill Dew Point Humidity Pressure Visibility Wind Dir Wind Speed Gust Speed Precip Events Conditions
12:13 AM 39.2 °F 33.6 °F 35.6 °F 87% 29.97 in 10.0 mi South 8.1 mph - N/A   Clear
12:33 AM 39.2 °F 33.6 °F 37.4 °F 93% 29.96 in 10.0 mi South 8.1 mph - N/A   Clear
12:53 AM 39.2 °F 37.0 °F 35.6 °F 87% 29.97 in 10.0 mi South 3.5 mph - N/A   Clear
1:13 AM 39.2 °F 37.0 °F 35.6 °F 87% 29.97 in 10.0 mi SSW 3.5 mph - N/A   Clear
1:33 AM 39.2 °F 35.9 °F 35.6 °F 87% 29.98 in 10.0 mi South 4.6 mph - N/A   Clear
1:53 AM 39.2 °F 35.9 °F 35.6 °F 87% 29.98 in 10.0 mi South 4.6 mph - N/A   Clear
1:13 AM 39.2 °F 35.0 °F 35.6 °F 87% 29.98 in 10.0 mi South 5.8 mph - N/A   Clear
1:33 AM 41.0 °F 35.8 °F 35.6 °F 81% 29.98 in 10.0 mi SE 8.1 mph - N/A   Scattered Clouds
1:54 AM 39.2 °F 32.5 °F 35.6 °F 87% 29.98 in 10.0 mi SSE 10.4 mph - N/A   Clear
2:13 AM 39.2 °F 32.5 °F 35.6 °F 87% 29.98 in 10.0 mi SSE 10.4 mph - N/A   Clear
2:33 AM 39.2 °F 32.5 °F 35.6 °F 87% 29.99 in 10.0 mi SSE 10.4 mph - N/A   Clear
2:54 AM 39.2 °F 32.5 °F 35.6 °F 87% 29.98 in 10.0 mi SSE 10.4 mph - N/A   Clear
3:13 AM 39.2 °F 33.0 °F 35.6 °F 87% 29.98 in 10.0 mi SSE 9.2 mph - N/A   Clear
3:33 AM 39.2 °F 33.6 °F 35.6 °F 87% 29.98 in 10.0 mi SSE 8.1 mph - N/A   Clear
3:54 AM 39.2 °F 33.6 °F 35.6 °F 87% 29.96 in 10.0 mi SE 8.1 mph - N/A   Clear
4:13 AM 39.2 °F 32.5 °F 35.6 °F 87% 29.96 in 10.0 mi SSE 10.4 mph - N/A   Clear
4:33 AM 37.4 °F 31.4 °F 35.6 °F 93% 29.96 in 10.0 mi SE 8.1 mph - N/A   Clear
4:54 AM 37.4 °F 30.8 °F 33.8 °F 87% 29.96 in 10.0 mi SSE 9.2 mph - N/A   Clear
5:13 AM 37.4 °F 32.8 °F 33.8 °F 87% 29.96 in 10.0 mi SE 5.8 mph - N/A   Clear
5:33 AM 37.4 °F 33.8 °F 33.8 °F 87% 29.96 in 10.0 mi SE 4.6 mph - N/A   Mostly Cloudy
5:54 AM 37.4 °F 31.4 °F 33.8 °F 87% 29.95 in 10.0 mi SE 8.1 mph - N/A   Overcast
6:13 AM 37.4 °F 31.4 °F 33.8 °F 87% 29.95 in 10.0 mi SE 8.1 mph - N/A   Mostly Cloudy
6:34 AM 39.2 °F 29.8 °F 35.6 °F 87% 29.95 in 10.0 mi SSE 18.4 mph - N/A   Scattered Clouds
6:53 AM 39.2 °F 30.2 °F 35.6 °F 87% 29.94 in 10.0 mi SSE 17.3 mph - N/A   Clear
7:13 AM 39.2 °F 30.2 °F 33.8 °F 81% 29.94 in 10.0 mi SSE 17.3 mph - N/A   Clear
7:33 AM 39.2 °F 29.8 °F 33.8 °F 81% 29.94 in 10.0 mi SSE 18.4 mph - N/A   Scattered Clouds
7:53 AM 39.2 °F 30.5 °F 33.8 °F 81% 29.94 in 10.0 mi SSE 16.1 mph - N/A   Mostly Cloudy
8:13 AM 39.2 °F 30.5 °F 33.8 °F 81% 29.95 in 10.0 mi SSE 16.1 mph - N/A   Scattered Clouds
8:33 AM 39.2 °F 30.2 °F 33.8 °F 81% 29.94 in 10.0 mi SE 17.3 mph - N/A   Clear
8:53 AM 39.2 °F 30.5 °F 33.8 °F 81% 29.94 in 10.0 mi SSE 16.1 mph - N/A   Clear
9:14 AM 39.2 °F 31.2 °F 33.8 °F 81% 29.93 in 10.0 mi SE 13.8 mph - N/A   Clear
9:33 AM 39.2 °F 30.5 °F 33.8 °F 81% 29.93 in 10.0 mi SSE 16.1 mph - N/A   Clear
9:53 AM 41.0 °F 32.5 °F 33.8 °F 76% 29.93 in 10.0 mi SSE 17.3 mph - N/A   Clear
10:13 AM 42.8 °F 35.1 °F 33.8 °F 70% 29.93 in 10.0 mi SSE 16.1 mph 23.0 mph N/A   Clear
10:33 AM 42.8 °F 36.2 °F 33.8 °F 70% 29.91 in 10.0 mi SE 12.7 mph 24.2 mph N/A   Clear
10:53 AM 42.8 °F 36.6 °F 33.8 °F 70% 29.91 in 10.0 mi SE 11.5 mph 18.4 mph N/A   Clear
11:13 AM 42.8 °F 38.0 °F 33.8 °F 70% 29.90 in 10.0 mi SE 8.1 mph - N/A   Clear
11:33 AM 42.8 °F 36.2 °F 32.0 °F 66% 29.89 in 10.0 mi SE 12.7 mph 18.4 mph N/A   Clear
11:53 AM 42.8 °F 38.0 °F 33.8 °F 70% 29.89 in 10.0 mi ESE 8.1 mph - N/A   Mostly Cloudy
12:13 PM 42.8 °F 36.6 °F 33.8 °F 70% 29.87 in 10.0 mi ESE 11.5 mph - N/A   Mostly Cloudy
12:33 PM 42.8 °F 36.6 °F 33.8 °F 70% 29.85 in 10.0 mi ESE 11.5 mph 19.6 mph N/A   Overcast
12:54 PM 42.8 °F 37.0 °F 33.8 °F 70% 29.84 in 10.0 mi ESE 10.4 mph 20.7 mph N/A   Overcast
1:13 PM 42.8 °F 36.6 °F 33.8 °F 70% 29.83 in 10.0 mi ESE 11.5 mph 18.4 mph N/A   Overcast
1:33 PM 44.6 °F 37.4 °F 33.8 °F 66% 29.82 in 10.0 mi ESE 16.1 mph 24.2 mph N/A   Overcast
1:54 PM 44.6 °F 37.8 °F 32.0 °F 61% 29.80 in 10.0 mi ESE 15.0 mph 20.7 mph N/A   Overcast
2:13 PM 44.6 °F 37.4 °F 32.0 °F 61% 29.80 in 10.0 mi ESE 16.1 mph 24.2 mph N/A   Overcast
2:33 PM 44.6 °F 37.8 °F 32.0 °F 61% 29.79 in 10.0 mi ESE 15.0 mph 24.2 mph N/A   Overcast
2:53 PM 44.6 °F 37.8 °F 32.0 °F 61% 29.78 in 10.0 mi ESE 15.0 mph 25.3 mph N/A   Overcast
3:13 PM 44.6 °F 37.2 °F 32.0 °F 61% 29.77 in 10.0 mi ESE 17.3 mph 28.8 mph N/A   Overcast
3:33 PM 44.6 °F 37.8 °F 32.0 °F 61% 29.77 in 10.0 mi ESE 15.0 mph 20.7 mph N/A   Overcast
3:53 PM 44.6 °F 38.4 °F 33.8 °F 66% 29.77 in 10.0 mi ESE 12.7 mph 21.9 mph N/A   Overcast
4:13 PM 44.6 °F 38.1 °F 33.8 °F 66% 29.78 in 10.0 mi SE 13.8 mph 21.9 mph N/A   Overcast
4:33 PM 44.6 °F 38.8 °F 33.8 °F 66% 29.79 in 10.0 mi SE 11.5 mph 21.9 mph N/A   Overcast
4:53 PM 44.6 °F 38.8 °F 33.8 °F 66% 29.79 in 10.0 mi SE 11.5 mph 18.4 mph N/A   Overcast
5:13 PM 44.6 °F 38.8 °F 33.8 °F 66% 29.80 in 10.0 mi SE 11.5 mph 19.6 mph N/A   Overcast
5:34 PM 44.6 °F 39.2 °F 33.8 °F 66% 29.80 in 10.0 mi SE 10.4 mph 20.7 mph N/A   Overcast
5:53 PM 44.6 °F 38.8 °F 33.8 °F 66% 29.79 in 10.0 mi SE 11.5 mph 19.6 mph N/A   Overcast
6:13 PM 44.6 °F 38.4 °F 33.8 °F 66% 29.79 in 10.0 mi SE 12.7 mph 19.6 mph N/A   Overcast
6:34 PM 44.6 °F 38.1 °F 33.8 °F 66% 29.79 in 10.0 mi SE 13.8 mph 20.7 mph N/A   Overcast
6:53 PM 44.6 °F 37.8 °F 33.8 °F 66% 29.79 in 10.0 mi SE 15.0 mph 24.2 mph N/A   Overcast
7:13 PM 44.6 °F 36.6 °F 33.8 °F 66% 29.78 in 10.0 mi SE 19.6 mph 26.5 mph N/A   Overcast
7:34 PM 44.6 °F 35.7 °F 33.8 °F 66% 29.77 in 10.0 mi SE 24.2 mph 32.2 mph N/A   Overcast
7:53 PM 44.6 °F 37.2 °F 33.8 °F 66% 29.78 in 10.0 mi SE 17.3 mph 21.9 mph N/A   Overcast
8:13 PM 44.6 °F 38.4 °F 33.8 °F 66% 29.78 in 10.0 mi SE 12.7 mph 21.9 mph N/A   Overcast
8:34 PM 44.6 °F 37.4 °F 33.8 °F 66% 29.77 in 10.0 mi SE 16.1 mph 21.9 mph N/A   Overcast
8:53 PM 42.8 °F 36.2 °F 33.8 °F 70% 29.77 in 10.0 mi SE 12.7 mph 25.3 mph N/A   Overcast
9:13 PM 42.8 °F 36.6 °F 33.8 °F 70% 29.77 in 10.0 mi ESE 11.5 mph 24.2 mph N/A   Overcast
9:33 PM 42.8 °F 36.2 °F 33.8 °F 70% 29.76 in 10.0 mi SE 12.7 mph 21.9 mph N/A   Overcast
9:53 PM 42.8 °F 35.1 °F 33.8 °F 70% 29.76 in 10.0 mi SE 16.1 mph 25.3 mph N/A   Overcast
10:13 PM 42.8 °F 35.1 °F 33.8 °F 70% 29.76 in 10.0 mi SE 16.1 mph 25.3 mph N/A   Overcast
10:33 PM 42.8 °F 35.8 °F 33.8 °F 70% 29.75 in 10.0 mi SE 13.8 mph 25.3 mph N/A   Overcast
10:53 PM 42.8 °F 35.1 °F 33.8 °F 70% 29.75 in 10.0 mi SE 16.1 mph 24.2 mph N/A   Overcast